Regional Weather Roundup
Issued by NWS Charleston, WV

Home | Current Version | Previous Version | Text Only | Print | Product List | Glossary On
Versions: 1 2 3 4 5 6 7 8 9 10 11 12 13 14 15 16 17 18 19 20 21 22 23 24 25 26 27 28 29 30 31 32 33 34 35 36 37 38 39 40 41 42 43 44 45 46 47 48 49 50
000
ASUS41 KRLX 212210
RWRRLX
West Virginia Regional Weather Roundup
National Weather Service Charleston WV
600 PM EDT SUN SEP 21 2014

Note: "fair" indicates few or no clouds below 12,000 feet with no
significant weather and/or obstructions to visibility.

WVZ003-212300-
Northern Panhandle of West Virginia

CITY           SKY/WX    TMP DP  RH WIND       PRES   REMARKS
WHEELING       SUNNY     73  43  33 W18G33    29.73R
$$

WVZ009-212300-
Northwest West Virginia

CITY           SKY/WX    TMP DP  RH WIND       PRES   REMARKS
PARKERSBURG    SUNNY     78  40  25 W14G25    29.78R
$$

WVZ006-212300-
Western West Virginia

CITY           SKY/WX    TMP DP  RH WIND       PRES   REMARKS
HUNTINGTON     SUNNY     77  54  44 W14G28    29.79R
$$

WVZ015-212300-
West Central West Virginia

CITY           SKY/WX    TMP DP  RH WIND       PRES   REMARKS
CHARLESTON     PTSUNNY   72  61  68 SW13      29.78R
$$

WVZ031-212300-
North Central West Virginia

CITY           SKY/WX    TMP DP  RH WIND       PRES   REMARKS
CLARKSBURG     PTSUNNY   69  66  90 S3        29.73S
MORGANTOWN     LGT RAIN  73  60  63 SW9       29.72R
$$

WVZ035-042-045-212300-
South Central West Virginia

CITY           SKY/WX    TMP DP  RH WIND       PRES   REMARKS
BECKLEY        MOSUNNY   72  61  68 W12       29.86S
BLUEFIELD      PTSUNNY   70  63  78 W14G20    29.90F
LEWISBURG      MOSUNNY   74  62  66 SW8       29.84S
$$

WVZ047-212300-
Northern Mountains of West Virginia

CITY           SKY/WX    TMP DP  RH WIND       PRES   REMARKS
ELKINS         PTSUNNY   73  59  61 W9G21     29.77S
$$

WVZ052-212300-
Eastern Panhandle of West Virginia

CITY           SKY/WX    TMP DP  RH WIND       PRES   REMARKS
MARTINSBURG    MOSUNNY   82  63  52 SE5       29.65S
PETERSBURG     MOSUNNY   80  51  37 W9        29.71R
$$


USA.gov is the U.S. government's official web portal to all federal, state and local government web resources and services.